7 * 24
多渠道服务支持
NINGXIA-1 3 是由中国宁夏回族自治区主导发射的一颗遥感卫星,主要用于国土资源监测、农业资源调查和生态环境保护等领域。该卫星具有高分辨率和多光谱成像能力,能够提供精准的遥感数据支持。作为宁夏在航天科技领域的重要成果,NINGXIA-1 3 有助于推动区域经济发展和信息化建设,提升地方在遥感应用方面的自主能力。
中国
(CN)
| 数据来源 | 国际轨道数据 |
| 星历时间: | 2025-12-15T17:00:41+0800 16小时前 查看轨道信息 |
| 半长轴: | 7264.963km |
| 偏心率: | 0.0010758 |
| 轨道倾角: | 45.000° |
| 近地点辐角 | 350.742° |
| 升交点赤经 | 279.891° |
| 平近点角 | 9.321° |
| 近地点: | 879.012km |
| 远地点: | 894.644km |
| 周期: | 102.709分钟 |
| 每日圈数: | 14.02015 |